Location: Łódź
(51.7951°N, 19.4477°E)
Time: 10:21:48
(UTC+02:00)

Envisat - Visible Passes

Search period start: 20 October 2019 00:00
Search period end: 29 October 2019 23:00
Orbit: 764 x 766 km, 98.1° (Epoch: 20 October)

Date Brightness Start Highest point End Pass type
(mag) Time Alt. Az. Time Alt. Az. Time Alt. Az.
20 Oct 6.0 06:34:07 10° NE 06:37:52 20° E 06:41:36 10° SE visible
20 Oct 4.9 19:33:11 10° SSW 19:37:40 31° W 19:42:12 10° NNW visible
21 Oct 3.6 18:55:40 10° S 19:00:41 61° W 19:05:45 10° NNW visible
22 Oct 3.0 18:18:50 10° SSE 18:23:53 71° ENE 18:28:58 10° N visible
22 Oct 5.6 19:59:46 10° SW 20:03:27 20° W 20:07:09 10° NW visible
23 Oct 6.1 06:23:14 10° NE 06:26:28 17° E 06:29:40 10° SE visible
23 Oct 4.5 19:21:36 10° SSW 19:26:19 38° W 19:31:04 10° NNW visible
24 Oct 3.2 18:44:19 10° S 18:49:24 74° WSW 18:54:30 10° NNW visible
24 Oct 6.1 20:27:20 10° WSW 20:29:20 12° W 20:31:21 10° WNW visible
25 Oct 3.1 18:07:41 10° SSE 18:12:39 58° ENE 18:17:39 10° N visible
25 Oct 5.3 19:47:58 10° SW 19:52:03 24° W 19:56:10 10° NW visible
26 Oct 6.3 06:12:31 10° NE 06:15:02 14° E 06:17:31 10° ESE visible
26 Oct 4.1 19:10:07 10° S 19:14:59 46° W 19:19:54 10° NNW visible
27 Oct 3.0 17:33:01 10° SSE 17:38:07 89° WSW 17:43:14 10° NNW visible
27 Oct 6.0 19:15:00 10° WSW 19:17:53 15° W 19:20:48 10° NW visible
28 Oct 5.9 05:36:58 10° NE 05:40:54 22° E 05:44:47 10° SE visible
28 Oct 3.2 16:56:34 10° SE 17:01:26 48° ENE 17:06:20 10° N visible
28 Oct 5.0 18:36:17 10° SSW 18:40:40 29° W 18:45:06 10° NNW visible
29 Oct 6.5 05:02:18 10° ENE 05:03:35 11° E 05:04:51 10° E visible
29 Oct 3.7 17:58:41 10° S 18:03:40 56° W 18:08:42 10° NNW visible
